Location: Unspecified
(0.0000°N, 0.0000°E)
Time: 09:34:30
(UTC+00:00)

Vanguard 1 - All Passes

Search period start: 09 December 2016 00:00
Search period end: 19 December 2016 00:00
Orbit: 651 x 3833 km, 34.3° (Epoch: 07 December)

Date Brightness Start Highest point End Pass type
(mag) Time Alt. Az. Time Alt. Az. Time Alt. Az.
09 Dec - 01:29:55 10° WSW 01:40:15 19° SW 01:47:43 10° S visible
09 Dec - 08:50:30 10° SSW 08:54:21 27° SE 08:59:06 10° E daylight
09 Dec - 11:09:45 10° W 11:14:47 36° NNW 11:22:47 10° NE daylight
09 Dec - 13:34:58 10° NW 13:39:34 14° N 13:45:24 10° NNE daylight
09 Dec - 16:01:36 10° NNW 16:09:52 15° NNE 16:19:58 10° NE daylight
09 Dec - 18:23:48 10° NNW 18:41:55 33° NNE 19:01:12 10° E visible
09 Dec - 20:47:29 10° NW 21:11:16 73° NE 21:29:45 10° ESE visible
09 Dec - 23:16:15 10° WNW 23:37:28 50° SW 23:51:02 10° SSE visible
10 Dec - 01:56:38 10° WSW 02:02:10 13° SW 02:06:45 10° S visible
10 Dec - 09:10:57 10° SW 09:15:18 52° SE 09:21:08 10° ENE daylight
10 Dec - 11:31:44 10° WNW 11:36:30 24° NNW 11:43:32 10° NNE daylight
10 Dec - 13:59:16 10° NNW 14:02:24 11° N 14:05:59 10° NNE daylight
10 Dec - 16:23:12 10° NNW 16:33:24 17° NNE 16:45:58 10° NE daylight
10 Dec - 18:44:51 10° NNW 19:04:33 41° NNE 19:24:46 10° E visible
10 Dec - 21:09:05 10° NW 21:33:07 88° NE 21:51:15 10° SE visible
10 Dec - 23:39:40 10° W 23:58:57 38° SW 00:11:36 10° SSE visible
11 Dec - 09:31:49 10° SW 09:36:19 83° NW 09:42:39 10° NE daylight
11 Dec - 11:54:22 10° NW 11:58:28 16° NNW 12:03:55 10° NNE daylight
11 Dec - 14:24:20 10° N 14:25:29 10° N 14:26:41 10° N daylight
11 Dec - 16:44:21 10° NNW 16:56:43 21° NNE 17:11:58 10° ENE daylight
11 Dec - 19:05:55 10° NW 19:26:53 51° NE 19:47:41 10° ESE visible
11 Dec - 21:30:56 10° WNW 21:54:51 77° SW 22:12:30 10° SE visible
12 Dec - 00:03:51 10° W 00:20:36 29° SW 00:32:01 10° SSE visible
12 Dec - 07:34:44 10° S 07:37:27 15° SE 07:40:10 10° ESE daylight
12 Dec - 09:53:06 10° WSW 09:57:31 45° NNW 10:03:46 10° NE daylight
12 Dec - 12:18:09 10° NNW 12:20:39 12° NNW 12:23:33 10° N daylight
12 Dec - 14:46:41 10° N 14:48:46 10° N 14:50:59 10° NNE daylight
12 Dec - 17:05:17 10° NNW 17:19:42 26° NNE 17:37:22 10° ENE daylight
12 Dec - 19:27:03 10° NW 19:49:00 62° NE 20:10:04 10° ESE visible
12 Dec - 21:53:10 10° WNW 22:16:31 63° SW 22:33:31 10° SE visible
13 Dec - 00:28:57 10° WSW 00:42:30 22° SW 00:52:14 10° S visible
13 Dec - 07:54:40 10° SSW 07:58:36 29° SE 08:02:43 10° E daylight
13 Dec - 10:14:51 10° W 10:18:56 26° NNW 10:24:29 10° NNE daylight
13 Dec - 15:07:13 10° N 15:12:05 12° NNE 15:17:44 10° NE daylight
13 Dec - 17:26:08 10° NNW 17:42:19 33° NNE 18:01:58 10° E daylight
13 Dec - 19:48:19 10° NW 20:10:58 75° NE 20:32:01 10° ESE visible
13 Dec - 22:15:52 10° WNW 22:38:11 51° SW 22:54:22 10° SE visible
14 Dec - 00:55:07 10° WSW 01:04:43 16° SSW 01:12:09 10° S visible
14 Dec - 08:15:16 10° SW 08:19:39 58° SE 08:24:29 10° ENE daylight
14 Dec - 10:37:16 10° WNW 10:40:34 16° NNW 10:44:42 10° NNE daylight
14 Dec - 15:27:41 10° N 15:35:17 15° NNE 15:44:42 10° NE daylight
14 Dec - 17:46:57 10° NNW 18:04:39 41° NE 18:25:46 10° E visible
14 Dec - 20:09:46 10° NW 20:32:49 89° NE 20:53:38 10° SE visible
14 Dec - 22:39:10 10° W 22:59:58 40° SW 23:15:06 10° SSE visible
15 Dec - 01:22:47 10° SW 01:27:17 11° SSW 01:31:13 10° S visible
15 Dec - 06:19:00 10° SSE 06:20:08 11° SSE 06:21:13 10° SE daylight
15 Dec - 08:36:19 10° WSW 08:40:42 70° NW 08:45:45 10° NE daylight
15 Dec - 11:01:38 10° NNW 11:02:26 10° NNW 11:03:15 10° N daylight
15 Dec - 15:48:07 10° NNW 15:58:13 19° NNE 16:11:16 10° ENE daylight
15 Dec - 18:07:51 10° NW 18:26:44 51° NE 18:48:53 10° ESE visible
15 Dec - 20:31:31 10° WNW 20:54:38 76° SW 21:14:59 10° SE visible
15 Dec - 23:03:12 10° W 23:21:57 31° SW 23:35:42 10° SSE visible
16 Dec - 06:37:58 10° SSW 06:41:39 19° SSE 06:44:53 10° ESE daylight
16 Dec - 08:57:48 10° W 09:01:51 35° NNW 09:06:36 10° NNE daylight
16 Dec - 16:08:37 10° NNW 16:20:49 24° NNE 16:37:03 10° E daylight
16 Dec - 18:28:50 10° NW 18:48:39 63° NE 19:11:25 10° ESE visible
16 Dec - 20:53:37 10° WNW 21:16:27 63° SW 21:36:07 10° SE visible
16 Dec - 23:28:06 10° W 23:44:11 24° SSW 23:56:14 10° SSE visible
17 Dec - 06:58:17 10° SSW 07:02:57 35° SSE 07:06:59 10° E daylight
17 Dec - 09:19:55 10° WNW 09:23:10 19° NNW 09:26:56 10° NNE daylight
17 Dec - 16:29:10 10° NNW 16:43:04 32° NE 17:01:55 10° E daylight
17 Dec - 18:49:58 10° NW 19:10:29 76° NE 19:33:31 10° ESE visible
17 Dec - 21:16:10 10° WNW 21:38:22 51° SW 21:57:06 10° SE visible
17 Dec - 23:53:54 10° WSW 00:06:46 19° SSW 00:16:42 10° SSE visible
18 Dec - 07:19:07 10° SW 07:24:06 69° SE 07:28:30 10° ENE daylight
18 Dec - 09:43:26 10° NW 09:44:41 11° NNW 09:46:01 10° N daylight
18 Dec - 14:33:25 10° N 14:37:38 12° NNE 14:42:32 10° NE daylight
18 Dec - 16:49:47 10° NNW 17:05:04 40° NE 17:25:57 10° E daylight
18 Dec - 19:11:19 10° NW 19:32:18 89° SW 19:55:14 10° SE visible
18 Dec - 21:39:17 10° W 22:00:26 41° SW 22:17:59 10° SSE visible
